Time,TemperatureF,DewpointF,PressureIn,WindDirection,WindDirectionDegrees,WindSpeedMPH,WindSpeedGustMPH,Humidity,HourlyPrecipIn,Conditions,Clouds,dailyrainin,SoftwareType,DateUTC
2013-08-12 00:08:00,75.9,68.8,30.04,SSE,164,0.0,2.0,79,0.00,,BKN250,0.00,VWS V14.01,2013-08-12 04:08:00,
2013-08-12 00:09:00,75.9,68.8,30.04,South,172,0.0,2.0,79,0.00,,BKN250,0.00,VWS V14.01,2013-08-12 04:09:00,
2013-08-12 00:14:00,75.9,68.8,30.03,SSE,168,2.0,2.0,79,0.00,,BKN250,0.00,VWS V14.01,2013-08-12 04:14:00,
2013-08-12 00:19:00,75.8,68.8,30.03,South,171,2.0,4.0,79,0.00,,BKN250,0.00,VWS V14.01,2013-08-12 04:19:00,
2013-08-12 00:24:00,75.9,69.2,30.03,South,169,3.0,7.0,80,0.00,,BKN250,0.00,VWS V14.01,2013-08-12 04:24:00,
2013-08-12 00:29:00,75.9,69.2,30.03,SSE,157,2.0,7.0,80,0.00,,BKN250,0.00,VWS V14.01,2013-08-12 04:29:00,
2013-08-12 00:34:00,75.9,69.2,30.03,SSE,158,1.0,5.0,80,0.00,,BKN250,0.00,VWS V14.01,2013-08-12 04:34:00,
2013-08-12 00:39:00,75.8,69.1,30.03,SSW,213,0.0,5.0,80,0.00,,BKN250,0.00,VWS V14.01,2013-08-12 04:39:00,
2013-08-12 00:44:00,75.6,68.9,30.03,South,169,1.0,3.0,80,0.00,,BKN250,0.00,VWS V14.01,2013-08-12 04:44:00,
2013-08-12 00:54:00,75.5,69.2,30.04,SW,215,0.0,4.0,81,0.00,,BKN250,0.00,VWS V14.01,2013-08-12 04:54:00,
2013-08-12 00:59:00,75.5,69.2,30.04,South,189,1.0,2.0,81,0.00,,BKN250,0.00,VWS V14.01,2013-08-12 04:59:00,
2013-08-12 01:08:00,75.5,69.6,30.03,South,177,0.0,2.0,82,0.00,,BKN250,0.00,VWS V14.01,2013-08-12 05:08:00,
2013-08-12 01:14:00,75.6,69.7,30.04,SSW,202,0.0,3.0,82,0.00,,BKN250,0.00,VWS V14.01,2013-08-12 05:14:00,
2013-08-12 01:19:00,75.6,69.7,30.04,South,183,1.0,3.0,82,0.00,,BKN250,0.00,VWS V14.01,2013-08-12 05:19:00,
2013-08-12 01:24:00,75.6,69.7,30.04,South,183,0.0,1.0,82,0.00,,BKN250,0.00,VWS V14.01,2013-08-12 05:24:00,
2013-08-12 01:29:00,75.5,69.2,30.04,SSW,193,0.0,3.0,81,0.00,,BKN250,0.00,VWS V14.01,2013-08-12 05:29:00,
2013-08-12 01:34:00,75.6,69.3,30.04,SSE,161,2.0,3.0,81,0.00,,BKN250,0.00,VWS V14.01,2013-08-12 05:34:00,
2013-08-12 01:39:00,75.6,69.3,30.04,SSE,159,0.0,3.0,81,0.00,,BKN250,0.00,VWS V14.01,2013-08-12 05:39:00,
2013-08-12 01:44:00,75.7,69.4,30.03,SSE,159,0.0,2.0,81,0.00,,BKN250,0.00,VWS V14.01,2013-08-12 05:44:00,
2013-08-12 01:49:00,75.6,69.7,30.03,SSE,148,2.0,3.0,82,0.00,,BKN250,0.00,VWS V14.01,2013-08-12 05:49:00,
2013-08-12 01:54:00,75.6,69.7,30.03,SSE,148,0.0,2.0,82,0.00,,BKN250,0.00,VWS V14.01,2013-08-12 05:54:00,
2013-08-12 01:59:00,75.5,69.6,30.03,SSE,148,0.0,1.0,82,0.00,,BKN250,0.00,VWS V14.01,2013-08-12 05:59:00,
2013-08-12 02:08:00,75.4,69.9,30.03,SSE,148,1.0,3.0,83,0.00,,BKN250,0.00,VWS V14.01,2013-08-12 06:08:00,
2013-08-12 02:14:00,75.2,69.7,30.03,SE,144,0.0,2.0,83,0.00,,BKN250,0.00,VWS V14.01,2013-08-12 06:14:00,
2013-08-12 02:19:00,75.1,69.6,30.02,SE,144,0.0,2.0,83,0.00,,BKN250,0.00,VWS V14.01,2013-08-12 06:19:00,
2013-08-12 02:24:00,75.0,69.5,30.02,SE,139,2.0,2.0,83,0.00,,BKN250,0.00,VWS V14.01,2013-08-12 06:24:00,
2013-08-12 02:29:00,74.9,69.8,30.02,SE,139,0.0,2.0,84,0.00,,BKN250,0.00,VWS V14.01,2013-08-12 06:29:00,
2013-08-12 02:39:00,74.8,69.7,30.02,SE,139,0.0,2.0,84,0.00,,BKN250,0.00,VWS V14.01,2013-08-12 06:39:00,
2013-08-12 02:44:00,74.6,69.8,30.01,SE,129,0.0,2.0,85,0.00,,BKN250,0.00,VWS V14.01,2013-08-12 06:44:00,
2013-08-12 02:49:00,74.6,69.8,30.01,SE,129,0.0,0.0,85,0.00,,BKN250,0.00,VWS V14.01,2013-08-12 06:49:00,
2013-08-12 02:54:00,74.6,70.2,30.01,ESE,123,1.0,1.0,86,0.00,,BKN250,0.00,VWS V14.01,2013-08-12 06:54:00,
2013-08-12 02:59:00,74.6,69.8,30.01,ESE,121,0.0,2.0,85,0.00,,OVC250,0.00,VWS V14.01,2013-08-12 06:59:00,
2013-08-12 03:08:00,74.5,70.1,30.01,ESE,121,0.0,1.0,86,0.00,,OVC250,0.00,VWS V14.01,2013-08-12 07:08:00,
2013-08-12 03:14:00,74.5,70.1,30.01,ESE,121,0.0,2.0,86,0.00,,OVC250,0.00,VWS V14.01,2013-08-12 07:14:00,
2013-08-12 03:19:00,74.5,69.8,30.01,ESE,122,0.0,1.0,85,0.00,,OVC250,0.00,VWS V14.01,2013-08-12 07:19:00,
2013-08-12 03:24:00,74.4,69.7,30.01,ESE,122,1.0,2.0,85,0.00,,OVC250,0.00,VWS V14.01,2013-08-12 07:24:00,
2013-08-12 03:29:00,74.4,70.0,30.01,ESE,122,1.0,2.0,86,0.00,,OVC250,0.00,VWS V14.01,2013-08-12 07:29:00,
2013-08-12 03:39:00,74.3,69.6,30.01,SE,127,0.0,1.0,85,0.00,,OVC250,0.00,VWS V14.01,2013-08-12 07:39:00,
2013-08-12 03:44:00,74.3,69.6,30.01,SE,126,0.0,1.0,85,0.00,,OVC250,0.00,VWS V14.01,2013-08-12 07:44:00,
2013-08-12 03:49:00,74.3,69.6,30.01,SE,126,0.0,2.0,85,0.00,,OVC250,0.00,VWS V14.01,2013-08-12 07:49:00,
2013-08-12 03:54:00,74.3,69.9,30.01,SE,126,0.0,0.0,86,0.00,,OVC250,0.00,VWS V14.01,2013-08-12 07:54:00,
2013-08-12 03:59:00,74.3,69.9,30.01,SE,126,0.0,0.0,86,0.00,,BKN250,0.00,VWS V14.01,2013-08-12 07:59:00,
2013-08-12 04:08:00,74.3,69.9,30.01,SE,126,1.0,2.0,86,0.00,,BKN250,0.00,VWS V14.01,2013-08-12 08:08:00,
2013-08-12 04:14:00,74.4,70.0,30.01,SE,125,0.0,1.0,86,0.00,,BKN250,0.00,VWS V14.01,2013-08-12 08:14:00,
2013-08-12 04:19:00,74.4,70.0,30.01,SE,125,0.0,2.0,86,0.00,,BKN250,0.00,VWS V14.01,2013-08-12 08:19:00,
2013-08-12 04:24:00,74.5,70.1,30.01,SE,125,0.0,2.0,86,0.00,,BKN250,0.00,VWS V14.01,2013-08-12 08:24:00,
2013-08-12 04:29:00,74.7,70.3,30.01,SE,125,0.0,1.0,86,0.00,,BKN250,0.00,VWS V14.01,2013-08-12 08:29:00,
2013-08-12 04:34:00,74.8,70.1,30.01,SE,128,1.0,3.0,85,0.00,,BKN250,0.00,VWS V14.01,2013-08-12 08:34:00,
2013-08-12 04:39:00,74.8,70.4,30.01,SE,129,2.0,2.0,86,0.00,,BKN250,0.00,VWS V14.01,2013-08-12 08:39:00,
2013-08-12 04:44:00,74.8,70.1,30.01,SE,130,0.0,2.0,85,0.00,,BKN250,0.00,VWS V14.01,2013-08-12 08:44:00,
2013-08-12 04:49:00,74.7,69.9,30.01,SE,130,0.0,2.0,85,0.00,,BKN250,0.00,VWS V14.01,2013-08-12 08:49:00,
2013-08-12 04:59:00,74.6,70.2,30.01,SE,131,0.0,2.0,86,0.00,,OVC130,0.00,VWS V14.01,2013-08-12 08:59:00,
2013-08-12 05:08:00,74.6,70.6,30.01,SE,131,0.0,2.0,87,0.00,,OVC130,0.00,VWS V14.01,2013-08-12 09:08:00,
2013-08-12 05:14:00,74.5,70.5,30.01,SE,133,2.0,3.0,87,0.00,,OVC130,0.00,VWS V14.01,2013-08-12 09:14:00,
2013-08-12 05:19:00,74.4,70.4,30.01,SE,133,1.0,2.0,87,0.00,,OVC130,0.00,VWS V14.01,2013-08-12 09:19:00,
2013-08-12 05:24:00,74.3,70.6,30.01,SE,133,0.0,2.0,88,0.00,,OVC130,0.00,VWS V14.01,2013-08-12 09:24:00,
2013-08-12 05:29:00,74.3,70.6,30.01,SE,133,0.0,2.0,88,0.00,,OVC130,0.00,VWS V14.01,2013-08-12 09:29:00,
2013-08-12 05:39:00,74.0,70.7,30.01,SE,133,0.0,1.0,89,0.00,,OVC130,0.00,VWS V14.01,2013-08-12 09:39:00,
2013-08-12 05:44:00,74.0,70.7,30.01,SE,133,0.0,2.0,89,0.00,,OVC130,0.00,VWS V14.01,2013-08-12 09:44:00,
2013-08-12 05:49:00,73.8,70.5,30.01,SE,133,1.0,1.0,89,0.00,,OVC130,0.00,VWS V14.01,2013-08-12 09:49:00,
2013-08-12 05:54:00,73.7,70.7,30.01,SE,133,0.0,1.0,90,0.00,,OVC130,0.00,VWS V14.01,2013-08-12 09:54:00,
2013-08-12 05:59:00,73.7,70.4,30.01,SE,133,2.0,2.0,89,0.00,,BKN250,0.00,VWS V14.01,2013-08-12 09:59:00,
2013-08-12 06:08:00,73.7,70.4,30.01,SE,133,1.0,2.0,89,0.00,,BKN250,0.00,VWS V14.01,2013-08-12 10:08:00,
2013-08-12 06:14:00,73.6,70.6,30.01,SE,134,0.0,1.0,90,0.00,,BKN250,0.00,VWS V14.01,2013-08-12 10:14:00,
2013-08-12 06:19:00,73.6,70.3,30.01,SE,134,0.0,2.0,89,0.00,,BKN250,0.00,VWS V14.01,2013-08-12 10:19:00,
2013-08-12 06:24:00,73.6,70.3,30.01,SE,134,0.0,1.0,89,0.00,,BKN250,0.00,VWS V14.01,2013-08-12 10:24:00,
2013-08-12 06:29:00,73.4,70.4,30.01,SE,134,0.0,1.0,90,0.00,,BKN250,0.00,VWS V14.01,2013-08-12 10:29:00,
2013-08-12 06:34:00,73.4,70.4,30.01,SE,134,0.0,1.0,90,0.00,,BKN250,0.00,VWS V14.01,2013-08-12 10:34:00,
2013-08-12 06:39:00,73.4,70.4,30.01,SE,134,1.0,2.0,90,0.00,,BKN250,0.00,VWS V14.01,2013-08-12 10:39:00,
2013-08-12 06:44:00,73.5,70.5,30.01,SE,135,0.0,1.0,90,0.00,,BKN250,0.00,VWS V14.01,2013-08-12 10:44:00,
2013-08-12 06:49:00,73.5,70.5,30.01,SE,135,0.0,1.0,90,0.00,,BKN250,0.00,VWS V14.01,2013-08-12 10:49:00,
2013-08-12 06:54:00,73.6,70.6,30.01,SE,135,0.0,1.0,90,0.00,,BKN250,0.00,VWS V14.01,2013-08-12 10:54:00,
2013-08-12 06:59:00,73.7,70.4,30.02,SE,135,0.0,1.0,89,0.00,,SCT250,0.00,VWS V14.01,2013-08-12 10:59:00,
2013-08-12 07:08:00,73.7,70.4,30.02,SE,135,0.0,1.0,89,0.00,,SCT250,0.00,VWS V14.01,2013-08-12 11:08:00,
2013-08-12 07:14:00,73.9,70.6,30.02,SE,135,0.0,2.0,89,0.00,,SCT250,0.00,VWS V14.01,2013-08-12 11:14:00,
2013-08-12 07:19:00,74.0,70.3,30.02,SE,136,0.0,1.0,88,0.00,,SCT250,0.00,VWS V14.01,2013-08-12 11:19:00,
2013-08-12 07:24:00,74.0,70.7,30.02,SE,136,0.0,1.0,89,0.00,,SCT250,0.00,VWS V14.01,2013-08-12 11:24:00,
2013-08-12 07:29:00,74.1,70.4,30.02,SE,141,0.0,3.0,88,0.00,,SCT250,0.00,VWS V14.01,2013-08-12 11:29:00,
2013-08-12 07:34:00,74.2,70.5,30.02,SE,141,0.0,2.0,88,0.00,,SCT250,0.00,VWS V14.01,2013-08-12 11:34:00,
2013-08-12 07:44:00,74.3,70.6,30.02,SSE,148,0.0,2.0,88,0.00,,SCT250,0.00,VWS V14.01,2013-08-12 11:44:00,
2013-08-12 07:49:00,74.4,70.7,30.02,SSE,150,0.0,2.0,88,0.00,,SCT250,0.00,VWS V14.01,2013-08-12 11:49:00,
2013-08-12 07:54:00,74.6,70.9,30.02,SSE,151,0.0,1.0,88,0.00,,SCT250,0.00,VWS V14.01,2013-08-12 11:54:00,
2013-08-12 08:08:00,74.9,71.2,30.02,SSE,152,0.0,2.0,88,0.00,,BKN250,0.00,VWS V14.01,2013-08-12 12:08:00,
2013-08-12 08:14:00,75.2,71.2,30.02,SSE,158,0.0,2.0,87,0.00,,BKN250,0.00,VWS V14.01,2013-08-12 12:14:00,
2013-08-12 08:19:00,75.3,71.6,30.02,SSE,158,0.0,2.0,88,0.00,,BKN250,0.00,VWS V14.01,2013-08-12 12:19:00,
2013-08-12 08:29:00,75.8,71.8,30.02,SSE,160,0.0,1.0,87,0.00,,BKN250,0.00,VWS V14.01,2013-08-12 12:29:00,
2013-08-12 08:34:00,76.1,71.7,30.02,SW,234,0.0,4.0,86,0.00,,BKN250,0.00,VWS V14.01,2013-08-12 12:34:00,
2013-08-12 08:44:00,77.1,71.9,30.02,WNW,293,4.0,4.0,84,0.00,,BKN250,0.00,VWS V14.01,2013-08-12 12:44:00,
2013-08-12 08:54:00,78.3,70.0,30.02,SW,231,0.0,6.0,76,0.00,,BKN250,0.00,VWS V14.01,2013-08-12 12:54:00,
2013-08-12 09:08:00,78.5,70.2,30.01,WNW,302,2.0,7.0,76,0.00,,BKN250,0.00,VWS V14.01,2013-08-12 13:08:00,
2013-08-12 09:14:00,79.3,69.7,30.01,WNW,300,6.0,8.0,72,0.00,,BKN250,0.00,VWS V14.01,2013-08-12 13:14:00,
2013-08-12 09:19:00,79.6,69.5,30.01,WNW,287,1.0,10.0,71,0.00,,BKN250,0.00,VWS V14.01,2013-08-12 13:19:00,
2013-08-12 09:24:00,79.7,69.2,30.01,NW,316,2.0,9.0,70,0.00,,BKN250,0.00,VWS V14.01,2013-08-12 13:24:00,
2013-08-12 09:29:00,80.1,69.6,30.01,NW,314,4.0,8.0,70,0.00,,BKN250,0.00,VWS V14.01,2013-08-12 13:29:00,
2013-08-12 09:34:00,80.0,69.5,30.01,WNW,293,1.0,9.0,70,0.00,,BKN250,0.00,VWS V14.01,2013-08-12 13:34:00,
2013-08-12 09:39:00,79.8,69.3,30.01,NW,318,10.0,10.0,70,0.00,,BKN250,0.00,VWS V14.01,2013-08-12 13:39:00,
2013-08-12 09:44:00,80.3,69.8,30.01,NW,308,3.0,10.0,70,0.00,,BKN250,0.00,VWS V14.01,2013-08-12 13:44:00,
2013-08-12 09:49:00,80.3,69.8,30.01,WSW,249,6.0,10.0,70,0.00,,BKN250,0.00,VWS V14.01,2013-08-12 13:49:00,
2013-08-12 09:54:00,80.6,69.6,30.01,WNW,290,0.0,7.0,69,0.00,,BKN250,0.00,VWS V14.01,2013-08-12 13:54:00,
2013-08-12 10:08:00,80.2,69.2,30.01,West,276,0.0,8.0,69,0.00,,FEW250,0.00,VWS V14.01,2013-08-12 14:08:00,
2013-08-12 10:14:00,80.7,69.2,30.01,SW,232,5.0,10.0,68,0.00,,FEW250,0.00,VWS V14.01,2013-08-12 14:14:00,
2013-08-12 10:19:00,80.9,69.0,30.01,WNW,300,8.0,11.0,67,0.00,,FEW250,0.00,VWS V14.01,2013-08-12 14:19:00,
2013-08-12 10:24:00,80.6,69.2,30.01,NW,308,5.0,14.0,68,0.00,,FEW250,0.00,VWS V14.01,2013-08-12 14:24:00,
2013-08-12 10:29:00,80.9,69.0,30.01,SSW,206,3.0,9.0,67,0.00,,FEW250,0.00,VWS V14.01,2013-08-12 14:29:00,
2013-08-12 10:34:00,81.4,69.5,30.01,WSW,240,7.0,10.0,67,0.00,,FEW250,0.00,VWS V14.01,2013-08-12 14:34:00,
2013-08-12 10:39:00,81.3,68.9,30.01,NW,307,5.0,8.0,66,0.00,,FEW250,0.00,VWS V14.01,2013-08-12 14:39:00,
2013-08-12 10:44:00,81.4,69.5,30.01,WNW,285,3.0,5.0,67,0.00,,FEW250,0.00,VWS V14.01,2013-08-12 14:44:00,
2013-08-12 10:49:00,81.9,69.9,30.01,East,90,1.0,4.0,67,0.00,,FEW250,0.00,VWS V14.01,2013-08-12 14:49:00,
2013-08-12 10:54:00,82.2,69.8,30.01,NW,319,1.0,4.0,66,0.00,,FEW250,0.00,VWS V14.01,2013-08-12 14:54:00,
2013-08-12 10:59:00,82.0,69.6,30.01,ENE,61,5.0,7.0,66,0.00,,SCT250,0.00,VWS V14.01,2013-08-12 14:59:00,
2013-08-12 11:08:00,82.3,69.4,30.01,NNE,27,2.0,6.0,65,0.00,,SCT250,0.00,VWS V14.01,2013-08-12 15:08:00,
2013-08-12 11:14:00,83.0,70.0,30.01,ENE,58,3.0,8.0,65,0.00,,SCT250,0.00,VWS V14.01,2013-08-12 15:14:00,
2013-08-12 11:19:00,83.2,70.2,30.01,NNE,28,2.0,7.0,65,0.00,,SCT250,0.00,VWS V14.01,2013-08-12 15:19:00,
2013-08-12 11:24:00,82.3,69.4,30.01,WNW,299,1.0,7.0,65,0.00,,SCT250,0.00,VWS V14.01,2013-08-12 15:24:00,
2013-08-12 11:29:00,83.0,70.0,30.01,NNE,31,2.0,6.0,65,0.00,,SCT250,0.00,VWS V14.01,2013-08-12 15:29:00,
2013-08-12 11:34:00,83.3,70.3,30.01,NE,49,2.0,8.0,65,0.00,,SCT250,0.00,VWS V14.01,2013-08-12 15:34:00,
2013-08-12 11:39:00,83.8,69.3,30.01,North,349,2.0,8.0,62,0.00,,SCT250,0.00,VWS V14.01,2013-08-12 15:39:00,
2013-08-12 11:44:00,83.6,69.6,30.01,North,352,1.0,7.0,63,0.00,,SCT250,0.00,VWS V14.01,2013-08-12 15:44:00,
2013-08-12 11:49:00,83.7,69.2,30.01,NE,49,6.0,7.0,62,0.00,,SCT250,0.00,VWS V14.01,2013-08-12 15:49:00,
2013-08-12 11:54:00,83.6,69.1,30.01,ENE,64,1.0,6.0,62,0.00,,SCT250,0.00,VWS V14.01,2013-08-12 15:54:00,
2013-08-12 11:59:00,84.5,69.5,30.01,ENE,60,1.0,6.0,61,0.00,,SCT250,0.00,VWS V14.01,2013-08-12 15:59:00,
2013-08-12 12:08:00,84.3,68.8,30.01,ENE,64,2.0,7.0,60,0.00,,SCT250,0.00,VWS V14.01,2013-08-12 16:08:00,
2013-08-12 12:14:00,83.9,68.9,30.01,SW,214,0.0,9.0,61,0.00,,SCT250,0.00,VWS V14.01,2013-08-12 16:14:00,
2013-08-12 12:19:00,83.4,68.4,30.01,West,265,0.0,9.0,61,0.00,,SCT250,0.00,VWS V14.01,2013-08-12 16:19:00,
2013-08-12 12:24:00,83.0,68.1,30.01,NW,308,2.0,7.0,61,0.00,,SCT250,0.00,VWS V14.01,2013-08-12 16:24:00,
2013-08-12 12:29:00,83.1,67.7,30.01,NE,39,1.0,7.0,60,0.00,,SCT250,0.00,VWS V14.01,2013-08-12 16:29:00,
2013-08-12 12:34:00,84.4,66.2,30.01,NW,311,5.0,6.0,54,0.00,,SCT250,0.00,VWS V14.01,2013-08-12 16:34:00,
2013-08-12 12:39:00,84.8,67.7,30.00,WSW,256,0.0,7.0,57,0.00,,SCT250,0.00,VWS V14.01,2013-08-12 16:39:00,
2013-08-12 12:44:00,84.5,67.4,30.00,NW,317,7.0,9.0,57,0.00,,SCT250,0.00,VWS V14.01,2013-08-12 16:44:00,
2013-08-12 12:49:00,84.4,66.2,30.00,NW,314,6.0,9.0,54,0.00,,SCT250,0.00,VWS V14.01,2013-08-12 16:49:00,
2013-08-12 12:54:00,84.8,65.4,30.00,WNW,303,7.0,12.0,52,0.00,,SCT250,0.00,VWS V14.01,2013-08-12 16:54:00,
2013-08-12 12:59:00,85.5,64.9,30.00,West,272,4.0,8.0,50,0.00,,SCT250,0.00,VWS V14.01,2013-08-12 16:59:00,
2013-08-12 13:08:00,85.8,65.7,30.00,WNW,292,3.0,11.0,51,0.00,,SCT250,0.00,VWS V14.01,2013-08-12 17:08:00,
2013-08-12 13:14:00,86.0,64.7,30.01,WNW,302,0.0,9.0,49,0.00,,SCT250,0.00,VWS V14.01,2013-08-12 17:14:00,
2013-08-12 13:19:00,85.5,66.6,30.01,WNW,300,2.0,7.0,53,0.00,,SCT250,0.00,VWS V14.01,2013-08-12 17:19:00,
2013-08-12 13:24:00,86.1,66.0,30.00,WNW,303,2.0,8.0,51,0.00,,SCT250,0.00,VWS V14.01,2013-08-12 17:24:00,
2013-08-12 13:29:00,86.8,65.4,30.00,West,275,11.0,16.0,49,0.00,,SCT250,0.00,VWS V14.01,2013-08-12 17:29:00,
2013-08-12 13:34:00,86.1,65.4,30.00,NW,326,7.0,12.0,50,0.00,,SCT250,0.00,VWS V14.01,2013-08-12 17:34:00,
2013-08-12 13:39:00,84.8,63.6,30.00,West,267,9.0,13.0,49,0.00,,SCT250,0.00,VWS V14.01,2013-08-12 17:39:00,
2013-08-12 13:44:00,85.6,63.1,30.00,NNE,24,2.0,9.0,47,0.00,,SCT250,0.00,VWS V14.01,2013-08-12 17:44:00,
2013-08-12 13:49:00,86.2,64.3,29.99,WNW,294,1.0,16.0,48,0.00,,SCT250,0.00,VWS V14.01,2013-08-12 17:49:00,
2013-08-12 13:54:00,87.0,63.7,29.99,NW,315,2.0,6.0,46,0.00,,SCT250,0.00,VWS V14.01,2013-08-12 17:54:00,
2013-08-12 13:59:00,87.5,62.8,29.99,WNW,295,6.0,10.0,44,0.00,,SCT250,0.00,VWS V14.01,2013-08-12 17:59:00,
2013-08-12 14:08:00,87.6,63.6,29.99,WSW,252,0.0,11.0,45,0.00,,SCT250,0.00,VWS V14.01,2013-08-12 18:08:00,
2013-08-12 14:14:00,88.1,62.7,29.99,WSW,241,2.0,9.0,43,0.00,,SCT250,0.00,VWS V14.01,2013-08-12 18:14:00,
2013-08-12 14:19:00,88.4,64.3,29.99,NW,320,0.0,10.0,45,0.00,,SCT250,0.00,VWS V14.01,2013-08-12 18:19:00,
2013-08-12 14:24:00,87.9,63.8,29.99,WSW,246,3.0,11.0,45,0.00,,SCT250,0.00,VWS V14.01,2013-08-12 18:24:00,
2013-08-12 14:29:00,88.2,64.8,29.99,South,179,0.0,7.0,46,0.00,,SCT250,0.00,VWS V14.01,2013-08-12 18:29:00,
2013-08-12 14:34:00,86.9,63.0,29.99,NNE,28,0.0,13.0,45,0.00,,SCT250,0.00,VWS V14.01,2013-08-12 18:34:00,
2013-08-12 14:39:00,87.1,63.1,29.98,NE,48,6.0,7.0,45,0.00,,SCT250,0.00,VWS V14.01,2013-08-12 18:39:00,
2013-08-12 14:44:00,88.0,63.9,29.98,ENE,75,1.0,8.0,45,0.00,,SCT250,0.00,VWS V14.01,2013-08-12 18:44:00,
2013-08-12 14:49:00,88.5,63.0,29.99,WSW,252,3.0,11.0,43,0.00,,SCT250,0.00,VWS V14.01,2013-08-12 18:49:00,
2013-08-12 14:54:00,87.8,61.7,29.98,West,261,2.0,9.0,42,0.00,,SCT250,0.00,VWS V14.01,2013-08-12 18:54:00,
2013-08-12 14:59:00,87.3,61.9,29.98,WNW,292,4.0,9.0,43,0.00,,SCT250,0.00,VWS V14.01,2013-08-12 18:59:00,
2013-08-12 15:08:00,87.7,62.3,29.98,SSE,168,0.0,9.0,43,0.00,,SCT250,0.00,VWS V14.01,2013-08-12 19:08:00,
2013-08-12 15:14:00,87.1,63.1,29.98,North,354,3.0,6.0,45,0.00,,SCT250,0.00,VWS V14.01,2013-08-12 19:14:00,
2013-08-12 15:19:00,87.6,64.9,29.97,ENE,74,3.0,8.0,47,0.00,,SCT250,0.00,VWS V14.01,2013-08-12 19:19:00,
2013-08-12 15:24:00,87.8,63.1,29.97,North,356,3.0,6.0,44,0.00,,SCT250,0.00,VWS V14.01,2013-08-12 19:24:00,
2013-08-12 15:29:00,88.3,62.8,29.97,North,349,3.0,4.0,43,0.00,,SCT250,0.00,VWS V14.01,2013-08-12 19:29:00,
2013-08-12 15:34:00,88.8,61.8,29.97,West,280,5.0,5.0,41,0.00,,SCT250,0.00,VWS V14.01,2013-08-12 19:34:00,
2013-08-12 15:39:00,88.5,63.0,29.97,NE,56,1.0,6.0,43,0.00,,SCT250,0.00,VWS V14.01,2013-08-12 19:39:00,
2013-08-12 15:44:00,88.7,61.8,29.97,NW,310,7.0,8.0,41,0.00,,SCT250,0.00,VWS V14.01,2013-08-12 19:44:00,
2013-08-12 15:49:00,88.8,61.8,29.97,NE,44,3.0,8.0,41,0.00,,SCT250,0.00,VWS V14.01,2013-08-12 19:49:00,
2013-08-12 15:54:00,89.0,61.3,29.97,SSW,202,0.0,12.0,40,0.00,,SCT250,0.00,VWS V14.01,2013-08-12 19:54:00,
2013-08-12 15:59:00,89.1,62.1,29.97,West,263,2.0,6.0,41,0.00,,SCT250,0.00,VWS V14.01,2013-08-12 19:59:00,
2013-08-12 16:08:00,88.9,60.4,29.96,NW,310,5.0,8.0,39,0.00,,SCT250,0.00,VWS V14.01,2013-08-12 20:08:00,
2013-08-12 16:14:00,88.3,61.4,29.96,WNW,302,5.0,8.0,41,0.00,,SCT250,0.00,VWS V14.01,2013-08-12 20:14:00,
2013-08-12 16:19:00,88.2,60.6,29.96,NW,304,1.0,9.0,40,0.00,,SCT250,0.00,VWS V14.01,2013-08-12 20:19:00,
2013-08-12 16:24:00,87.8,60.9,29.96,SSW,192,1.0,7.0,41,0.00,,SCT250,0.00,VWS V14.01,2013-08-12 20:24:00,
2013-08-12 16:29:00,88.1,61.9,29.96,NW,320,0.0,10.0,42,0.00,,SCT250,0.00,VWS V14.01,2013-08-12 20:29:00,
2013-08-12 16:34:00,88.3,62.1,29.96,NNW,327,3.0,6.0,42,0.00,,SCT250,0.00,VWS V14.01,2013-08-12 20:34:00,
2013-08-12 16:39:00,88.3,61.4,29.96,WSW,238,5.0,10.0,41,0.00,,SCT250,0.00,VWS V14.01,2013-08-12 20:39:00,
2013-08-12 16:44:00,87.9,61.0,29.96,NNW,327,3.0,5.0,41,0.00,,SCT250,0.00,VWS V14.01,2013-08-12 20:44:00,
2013-08-12 16:49:00,88.4,62.9,29.96,NE,48,5.0,7.0,43,0.00,,SCT250,0.00,VWS V14.01,2013-08-12 20:49:00,
2013-08-12 16:54:00,88.0,61.8,29.96,NNW,333,5.0,7.0,42,0.00,,SCT250,0.00,VWS V14.01,2013-08-12 20:54:00,
2013-08-12 16:59:00,87.8,60.2,29.96,NE,56,2.0,5.0,40,0.00,,SCT250,0.00,VWS V14.01,2013-08-12 20:59:00,
2013-08-12 17:08:00,87.6,60.8,29.96,NNE,19,2.0,4.0,41,0.00,,SCT250,0.00,VWS V14.01,2013-08-12 21:08:00,
2013-08-12 17:14:00,87.4,60.6,29.95,NNE,32,1.0,12.0,41,0.00,,SCT250,0.00,VWS V14.01,2013-08-12 21:14:00,
2013-08-12 17:19:00,87.6,60.0,29.95,WNW,300,5.0,6.0,40,0.00,,SCT250,0.00,VWS V14.01,2013-08-12 21:19:00,
2013-08-12 17:29:00,87.6,60.8,29.95,West,262,0.0,5.0,41,0.00,,SCT250,0.00,VWS V14.01,2013-08-12 21:29:00,
2013-08-12 17:34:00,87.6,61.5,29.95,NW,307,4.0,7.0,42,0.00,,SCT250,0.00,VWS V14.01,2013-08-12 21:34:00,
2013-08-12 17:39:00,87.5,62.8,29.95,North,10,2.0,4.0,44,0.00,,SCT250,0.00,VWS V14.01,2013-08-12 21:39:00,
2013-08-12 17:44:00,87.7,61.6,29.95,WNW,284,6.0,6.0,42,0.00,,SCT250,0.00,VWS V14.01,2013-08-12 21:44:00,
2013-08-12 17:49:00,87.6,61.5,29.95,WNW,300,3.0,7.0,42,0.00,,SCT250,0.00,VWS V14.01,2013-08-12 21:49:00,
2013-08-12 17:54:00,87.2,61.8,29.95,NW,317,0.0,7.0,43,0.00,,SCT250,0.00,VWS V14.01,2013-08-12 21:54:00,
2013-08-12 18:08:00,86.7,62.8,29.95,NNW,329,1.0,3.0,45,0.00,,SCT250,0.00,VWS V14.01,2013-08-12 22:08:00,
2013-08-12 18:14:00,85.9,62.7,29.95,ENE,60,4.0,6.0,46,0.00,,SCT250,0.00,VWS V14.01,2013-08-12 22:14:00,
2013-08-12 18:19:00,85.8,63.9,29.95,NE,54,3.0,7.0,48,0.00,,SCT250,0.00,VWS V14.01,2013-08-12 22:19:00,
2013-08-12 18:24:00,85.7,65.0,29.94,ENE,64,2.0,7.0,50,0.00,,SCT250,0.00,VWS V14.01,2013-08-12 22:24:00,
2013-08-12 18:29:00,85.4,64.8,29.94,ENE,63,1.0,3.0,50,0.00,,SCT250,0.00,VWS V14.01,2013-08-12 22:29:00,
2013-08-12 18:34:00,85.3,65.3,29.94,ENE,62,4.0,6.0,51,0.00,,SCT250,0.00,VWS V14.01,2013-08-12 22:34:00,
2013-08-12 18:39:00,85.1,65.7,29.94,ENE,60,3.0,5.0,52,0.00,,SCT250,0.00,VWS V14.01,2013-08-12 22:39:00,
2013-08-12 18:44:00,85.0,66.2,29.94,ENE,65,2.0,4.0,53,0.00,,SCT250,0.00,VWS V14.01,2013-08-12 22:44:00,
2013-08-12 18:49:00,84.8,65.4,29.94,ENE,58,1.0,5.0,52,0.00,,SCT250,0.00,VWS V14.01,2013-08-12 22:49:00,
2013-08-12 18:54:00,84.8,64.2,29.94,ENE,58,2.0,4.0,50,0.00,,SCT250,0.00,VWS V14.01,2013-08-12 22:54:00,
2013-08-12 18:59:00,84.8,64.2,29.94,ENE,64,2.0,3.0,50,0.00,,BKN250,0.00,VWS V14.01,2013-08-12 22:59:00,
2013-08-12 19:08:00,84.8,63.6,29.94,ENE,63,3.0,3.0,49,0.00,,BKN250,0.00,VWS V14.01,2013-08-12 23:08:00,
2013-08-12 19:14:00,84.5,63.9,29.94,ENE,63,1.0,3.0,50,0.00,,BKN250,0.00,VWS V14.01,2013-08-12 23:14:00,
2013-08-12 19:19:00,84.6,63.4,29.94,ENE,72,1.0,2.0,49,0.00,,BKN250,0.00,VWS V14.01,2013-08-12 23:19:00,
2013-08-12 19:24:00,84.4,64.4,29.95,ENE,74,0.0,2.0,51,0.00,,BKN250,0.00,VWS V14.01,2013-08-12 23:24:00,
2013-08-12 19:29:00,84.2,64.8,29.94,East,84,2.0,3.0,52,0.00,,BKN250,0.00,VWS V14.01,2013-08-12 23:29:00,
2013-08-12 19:34:00,84.2,68.2,29.94,ESE,108,1.0,4.0,59,0.00,,BKN250,0.00,VWS V14.01,2013-08-12 23:34:00,
2013-08-12 19:39:00,83.9,69.9,29.94,ESE,119,1.0,5.0,63,0.00,,BKN250,0.00,VWS V14.01,2013-08-12 23:39:00,
2013-08-12 19:44:00,83.6,70.6,29.94,ESE,120,0.0,6.0,65,0.00,,BKN250,0.00,VWS V14.01,2013-08-12 23:44:00,
2013-08-12 19:49:00,83.3,70.8,29.94,ESE,123,1.0,4.0,66,0.00,,BKN250,0.00,VWS V14.01,2013-08-12 23:49:00,
2013-08-12 19:54:00,83.0,71.9,29.94,ESE,123,2.0,3.0,69,0.00,,BKN250,0.00,VWS V14.01,2013-08-12 23:54:00,
2013-08-12 19:59:00,82.8,72.2,29.95,SE,125,3.0,4.0,70,0.00,,BKN250,0.00,VWS V14.01,2013-08-12 23:59:00,
2013-08-12 20:08:00,82.6,72.4,29.94,SE,125,2.0,4.0,71,0.00,,BKN250,0.00,VWS V14.01,2013-08-13 00:08:00,
2013-08-12 20:14:00,82.4,72.7,29.95,SE,127,3.0,3.0,72,0.00,,BKN250,0.00,VWS V14.01,2013-08-13 00:14:00,
2013-08-12 20:19:00,82.2,72.5,29.95,ESE,119,1.0,4.0,72,0.00,,BKN250,0.00,VWS V14.01,2013-08-13 00:19:00,
2013-08-12 20:24:00,82.0,72.7,29.95,SE,126,3.0,5.0,73,0.00,,BKN250,0.00,VWS V14.01,2013-08-13 00:24:00,
2013-08-12 20:29:00,81.8,72.9,29.94,SE,126,2.0,3.0,75,0.00,,BKN250,0.00,VWS V14.01,2013-08-13 00:29:00,
2013-08-12 20:34:00,81.7,73.2,29.95,SE,125,3.0,3.0,76,0.00,,BKN250,0.00,VWS V14.01,2013-08-13 00:34:00,
2013-08-12 20:39:00,81.6,73.2,29.95,SE,126,3.0,4.0,76,0.00,,BKN250,0.00,VWS V14.01,2013-08-13 00:39:00,
2013-08-12 20:44:00,81.5,73.5,29.95,SE,127,2.0,4.0,77,0.00,,BKN250,0.00,VWS V14.01,2013-08-13 00:44:00,
2013-08-12 20:49:00,81.5,73.1,29.95,SE,126,3.0,4.0,76,0.00,,BKN250,0.00,VWS V14.01,2013-08-13 00:49:00,
2013-08-12 20:54:00,81.2,73.2,29.94,SE,129,0.0,5.0,77,0.00,,BKN250,0.00,VWS V14.01,2013-08-13 00:54:00,
2013-08-12 20:59:00,80.9,72.9,29.95,SE,131,3.0,5.0,77,0.00,,BKN250,0.00,VWS V14.01,2013-08-13 00:59:00,
2013-08-12 21:08:00,80.7,73.1,29.95,SE,131,2.0,5.0,78,0.00,,BKN250,0.00,VWS V14.01,2013-08-13 01:08:00,
2013-08-12 21:14:00,80.6,72.6,29.95,SE,146,4.0,5.0,77,0.00,,BKN250,0.00,VWS V14.01,2013-08-13 01:14:00,
2013-08-12 21:19:00,80.5,72.5,29.95,SE,146,2.0,7.0,77,0.00,,BKN250,0.00,VWS V14.01,2013-08-13 01:19:00,
2013-08-12 21:24:00,80.4,72.4,29.95,SE,143,0.0,3.0,77,0.00,,BKN250,0.00,VWS V14.01,2013-08-13 01:24:00,
2013-08-12 21:29:00,80.3,72.3,29.95,SE,144,2.0,3.0,77,0.00,,BKN250,0.00,VWS V14.01,2013-08-13 01:29:00,
2013-08-12 21:34:00,80.4,72.4,29.95,SE,141,2.0,4.0,77,0.00,,BKN250,0.00,VWS V14.01,2013-08-13 01:34:00,
2013-08-12 21:39:00,80.4,72.4,29.95,SE,140,1.0,4.0,77,0.00,,BKN250,0.00,VWS V14.01,2013-08-13 01:39:00,
2013-08-12 21:44:00,80.1,72.5,29.96,SE,142,4.0,5.0,78,0.00,,BKN250,0.00,VWS V14.01,2013-08-13 01:44:00,
2013-08-12 21:49:00,79.7,72.5,29.96,SE,142,1.0,4.0,79,0.00,,BKN250,0.00,VWS V14.01,2013-08-13 01:49:00,
2013-08-12 21:54:00,79.5,72.7,29.95,SE,141,2.0,3.0,80,0.00,,BKN250,0.00,VWS V14.01,2013-08-13 01:54:00,
2013-08-12 21:59:00,79.4,72.6,29.95,SE,141,1.0,3.0,80,0.00,,BKN250,0.00,VWS V14.01,2013-08-13 01:59:00,
2013-08-12 22:08:00,79.4,72.6,29.96,SE,141,0.0,4.0,80,0.00,,BKN250,0.00,VWS V14.01,2013-08-13 02:08:00,
2013-08-12 22:14:00,79.2,72.8,29.95,SE,142,2.0,4.0,81,0.00,,BKN250,0.00,VWS V14.01,2013-08-13 02:14:00,
2013-08-12 22:19:00,79.2,72.8,29.95,SE,142,1.0,4.0,81,0.00,,BKN250,0.00,VWS V14.01,2013-08-13 02:19:00,
2013-08-12 22:24:00,79.2,73.2,29.96,SE,143,3.0,4.0,82,0.00,,BKN250,0.00,VWS V14.01,2013-08-13 02:24:00,
2013-08-12 22:29:00,79.1,73.1,29.96,SE,146,2.0,4.0,82,0.00,,BKN250,0.00,VWS V14.01,2013-08-13 02:29:00,
2013-08-12 22:34:00,79.2,72.8,29.95,SE,144,0.0,2.0,81,0.00,,BKN250,0.00,VWS V14.01,2013-08-13 02:34:00,
2013-08-12 22:44:00,79.4,73.0,29.95,SE,144,3.0,3.0,81,0.00,,BKN250,0.00,VWS V14.01,2013-08-13 02:44:00,
2013-08-12 22:49:00,79.3,72.9,29.94,SE,137,2.0,4.0,81,0.00,,BKN250,0.00,VWS V14.01,2013-08-13 02:49:00,
2013-08-12 22:54:00,79.1,72.7,29.94,SE,138,3.0,3.0,81,0.00,,BKN250,0.00,VWS V14.01,2013-08-13 02:54:00,
2013-08-12 23:08:00,79.0,73.0,29.94,ESE,120,3.0,4.0,82,0.00,,-RA,0.00,VWS V14.01,2013-08-13 03:08:00,
2013-08-12 23:14:00,78.9,72.9,29.94,SE,133,1.0,4.0,82,0.00,,-RA,0.00,VWS V14.01,2013-08-13 03:14:00,
2013-08-12 23:19:00,78.7,72.7,29.94,SE,133,1.0,5.0,82,0.00,,-RA,0.00,VWS V14.01,2013-08-13 03:19:00,
2013-08-12 23:24:00,78.6,72.6,29.94,SE,135,3.0,5.0,82,0.00,,-RA,0.00,VWS V14.01,2013-08-13 03:24:00,
2013-08-12 23:29:00,78.6,72.6,29.94,SE,139,3.0,6.0,82,0.00,,-RA,0.00,VWS V14.01,2013-08-13 03:29:00,
2013-08-12 23:34:00,78.6,73.0,29.93,SE,137,2.0,3.0,83,0.00,,-RA,0.00,VWS V14.01,2013-08-13 03:34:00,
2013-08-12 23:39:00,78.6,73.0,29.93,SE,136,0.0,4.0,83,0.00,,-RA,0.00,VWS V14.01,2013-08-13 03:39:00,
2013-08-12 23:44:00,78.6,73.0,29.93,SE,136,1.0,3.0,83,0.00,,-RA,0.00,VWS V14.01,2013-08-13 03:44:00,
2013-08-12 23:54:00,78.5,72.5,29.93,East,100,1.0,5.0,82,0.00,,-RA,0.00,VWS V14.01,2013-08-13 03:54:00,
2013-08-12 23:59:00,78.4,72.8,29.93,SSE,152,1.0,5.0,83,0.00,,OVC250,0.00,VWS V14.01,2013-08-13 03:59:00,